| time (UTC) | temp F | wind direction | speed MPH | gust MPH | rain 1hr in | rain 24hr in | rain mn in | humidity % | barometer mb |
| 20260906054333 | 78 | 169 | 0.0 | 1.0 | 0.00 | 0.00 | 0.00 | 95 | 1017.4 |
| 20260906053830 | 78 | 169 | 0.0 | 0.0 | 0.00 | 0.00 | 0.00 | 95 | 1017.4 |
| 20260906053325 | 78 | 169 | 0.0 | 1.0 | 0.00 | 0.00 | 0.00 | 96 | 1017.5 |
| 20260906052820 | 78 | 169 | 0.0 | 0.0 | 0.00 | 0.00 | 0.00 | 96 | 1017.5 |
| 20260906052317 | 78 | 169 | 0.0 | 1.0 | 0.00 | 0.00 | 0.00 | 96 | 1017.7 |
| 20260906051814 | 78 | 169 | 1.0 | 1.0 | 0.00 | 0.00 | 0.00 | 97 | 1017.7 |
| 20260906051313 | 78 | 169 | 0.0 | 1.0 | 0.00 | 0.00 | 0.00 | 97 | 1017.4 |
| 20260906050809 | 78 | 169 | 1.0 | 1.0 | 0.00 | 0.00 | 0.00 | 97 | 1017.5 |
| 20260906050304 | 78 | 169 | 0.0 | 0.0 | 0.00 | 0.00 | 0.00 | 97 | 1017.6 |
| 20260906045802 | 78 | 169 | 0.0 | 1.0 | 0.00 | 0.00 | 0.00 | 97 | 1017.6 |
| 20260906045257 | 78 | 169 | 1.0 | 1.0 | 0.00 | 0.00 | 0.00 | 96 | 1017.7 |
| 20260906044754 | 78 | 169 | 0.0 | 0.0 | 0.00 | 0.00 | 0.00 | 96 | 1017.9 |
| 20260906044248 | 78 | 169 | 0.0 | 1.0 | 0.00 | 0.00 | 0.00 | 96 | 1017.5 |
| 20260906043744 | 78 | 169 | 1.0 | 1.0 | 0.00 | 0.00 | 0.00 | 96 | 1017.7 |
| 20260906043240 | 78 | 169 | 0.0 | 0.0 | 0.00 | 0.00 | 0.00 | 96 | 1017.7 |
| 20260906042739 | 78 | 169 | 0.0 | 0.0 | 0.00 | 0.00 | 0.00 | 96 | 1017.9 |
| 20260906042238 | 78 | 169 | 1.0 | 1.0 | 0.00 | 0.00 | 0.00 | 96 | 1017.8 |
| 20260906041734 | 78 | 169 | 1.0 | 1.0 | 0.00 | 0.00 | 0.00 | 96 | 1017.9 |
| 20260906041229 | 79 | 169 | 0.0 | 0.0 | 0.00 | 0.00 | 0.00 | 96 | 1018.0 |
| 20260906040725 | 79 | 169 | 1.0 | 1.0 | 0.00 | 0.00 | 0.00 | 95 | 1017.9 |
| 20260906040220 | 79 | 169 | 0.0 | 0.0 | 0.00 | 0.00 | 0.00 | 95 | 1018.0 |
| 20260906035715 | 79 | 169 | 0.0 | 0.0 | 0.00 | 0.00 | 0.00 | 95 | 1018.0 |
| 20260906035210 | 79 | 169 | 0.0 | 0.0 | 0.00 | 0.00 | 0.00 | 95 | 1018.1 |
| 20260906034704 | 79 | 169 | 1.0 | 1.0 | 0.00 | 0.00 | 0.00 | 95 | 1018.0 |
| 20260906034159 | 79 | 169 | 0.0 | 0.0 | 0.00 | 0.00 | 0.00 | 95 | 1018.0 |
| 20260906033655 | 79 | 169 | 0.0 | 0.0 | 0.00 | 0.00 | 0.00 | 95 | 1018.1 |
| 20260906033156 | 79 | 169 | 0.0 | 0.0 | 0.00 | 0.00 | 0.00 | 95 | 1018.2 |
| 20260906032652 | 79 | 169 | 0.0 | 0.0 | 0.00 | 0.00 | 0.00 | 95 | 1018.1 |
| 20260906032146 | 79 | 169 | 0.0 | 1.0 | 0.00 | 0.00 | 0.00 | 95 | 1018.1 |
| 20260906031641 | 79 | 169 | 1.0 | 1.0 | 0.00 | 0.00 | 0.00 | 95 | 1018.2 |
| 20260906031137 | 79 | 169 | 0.0 | 0.0 | 0.00 | 0.00 | 0.00 | 94 | 1018.5 |
| 20260906030636 | 79 | 169 | 0.0 | 0.0 | 0.00 | 0.00 | 0.00 | 94 | 1018.4 |
| 20260906030132 | 79 | 171 | 2.0 | 2.0 | 0.00 | 0.00 | 0.00 | 94 | 1018.2 |
| 20260906025631 | 80 | 154 | 2.0 | 2.0 | 0.00 | 0.00 | 0.00 | 93 | 1018.3 |
| 20260906025130 | 80 | 128 | 0.0 | 0.0 | 0.00 | 0.00 | 0.00 | 93 | 1018.3 |
| 20260906024625 | 80 | 128 | 0.0 | 1.0 | 0.00 | 0.00 | 0.00 | 92 | 1018.4 |
| 20260906024119 | 80 | 126 | 0.0 | 0.0 | 0.00 | 0.00 | 0.00 | 93 | 1018.3 |
| 20260906023615 | 80 | 126 | 0.0 | 1.0 | 0.00 | 0.00 | 0.00 | 92 | 1018.3 |
| 20260906023109 | 80 | 108 | 1.0 | 1.0 | 0.00 | 0.00 | 0.00 | 91 | 1018.2 |
| 20260906022605 | 81 | 115 | 1.0 | 1.0 | 0.00 | 0.00 | 0.00 | 91 | 1018.1 |
| 20260906022101 | 81 | 176 | 2.0 | 2.0 | 0.00 | 0.00 | 0.00 | 90 | 1018.2 |
| 20260906021556 | 81 | 177 | 0.0 | 0.0 | 0.00 | 0.00 | 0.00 | 90 | 1018.1 |
| 20260906021055 | 81 | 178 | 1.0 | 2.0 | 0.00 | 0.00 | 0.00 | 90 | 1018.0 |
| 20260906020554 | 81 | 176 | 0.0 | 1.0 | 0.00 | 0.00 | 0.00 | 90 | 1017.9 |
| 20260906020054 | 81 | 176 | 0.0 | 0.0 | 0.00 | 0.00 | 0.00 | 89 | 1018.0 |
| 20260906015553 | 82 | 174 | 1.0 | 1.0 | 0.00 | 0.00 | 0.00 | 89 | 1017.9 |
| 20260906015048 | 82 | 163 | 0.0 | 1.0 | 0.00 | 0.00 | 0.00 | 88 | 1017.8 |
| 20260906014542 | 82 | 163 | 0.0 | 1.0 | 0.00 | 0.00 | 0.00 | 88 | 1017.6 |
| 20260906014038 | 82 | 163 | 0.0 | 1.0 | 0.00 | 0.00 | 0.00 | 87 | 1017.4 |
| 20260906013533 | 82 | 160 | 1.0 | 1.0 | 0.00 | 0.00 | 0.00 | 87 | 1017.3 |
| 20260906013029 | 82 | 173 | 2.0 | 3.0 | 0.00 | 0.00 | 0.00 | 87 | 1017.6 |
| 20260906012524 | 82 | 175 | 1.0 | 3.0 | 0.00 | 0.00 | 0.00 | 88 | 1017.4 |
| 20260906012023 | 82 | 168 | 2.0 | 3.0 | 0.00 | 0.00 | 0.00 | 88 | 1017.2 |
| 20260906011520 | 82 | 187 | 3.0 | 3.0 | 0.00 | 0.00 | 0.00 | 88 | 1017.1 |
| 20260906011019 | 82 | 171 | 2.0 | 3.0 | 0.00 | 0.00 | 0.00 | 88 | 1017.0 |
| 20260906010515 | 82 | 154 | 0.0 | 1.0 | 0.00 | 0.00 | 0.00 | 87 | 1017.1 |
| 20260906010011 | 82 | 154 | 0.0 | 0.0 | 0.00 | 0.00 | 0.00 | 87 | 1017.3 |
| 20260906005509 | 83 | 154 | 0.0 | 1.0 | 0.00 | 0.00 | 0.00 | 87 | 1017.1 |
| 20260906005008 | 83 | 168 | 2.0 | 3.0 | 0.00 | 0.00 | 0.00 | 86 | 1017.1 |
| 20260906004503 | 82 | 162 | 1.0 | 5.0 | 0.00 | 0.00 | 0.00 | 88 | 1017.1 |
| 20260906003958 | 81 | 176 | 3.0 | 3.0 | 0.00 | 0.00 | 0.00 | 90 | 1017.1 |
| 20260906003453 | 82 | 164 | 2.0 | 2.0 | 0.00 | 0.00 | 0.00 | 90 | 1017.0 |
| 20260906002949 | 82 | 145 | 0.0 | 2.0 | 0.00 | 0.00 | 0.00 | 90 | 1017.0 |
| 20260906002449 | 82 | 152 | 2.0 | 3.0 | 0.00 | 0.00 | 0.00 | 89 | 1017.1 |
| 20260906001944 | 83 | 138 | 0.0 | 1.0 | 0.00 | 0.00 | 0.00 | 87 | 1017.2 |
| 20260906001439 | 83 | 138 | 0.0 | 0.0 | 0.00 | 0.00 | 0.00 | 87 | 1017.4 |
| 20260906000929 | 83 | 138 | 0.0 | 0.0 | 0.00 | 0.00 | 0.00 | 87 | 1017.5 |
| 20260906000425 | 84 | 138 | 0.0 | 0.0 | 0.00 | 0.00 | 0.00 | 86 | 1017.3 |
| 20260905235919 | 84 | 138 | 0.0 | 0.0 | 0.00 | 0.00 | 0.00 | 85 | 1017.4 |
| 20260905235413 | 84 | 138 | 0.0 | 1.0 | 0.00 | 0.00 | 0.00 | 84 | 1017.6 |
| 20260905234908 | 84 | 138 | 0.0 | 1.0 | 0.00 | 0.00 | 0.00 | 84 | 1017.3 |
| 20260905234403 | 84 | 144 | 0.0 | 1.0 | 0.00 | 0.00 | 0.00 | 85 | 1017.2 |
| 20260905233858 | 85 | 143 | 0.0 | 1.0 | 0.00 | 0.00 | 0.00 | 84 | 1017.3 |
| 20260905233353 | 85 | 142 | 0.0 | 1.0 | 0.00 | 0.00 | 0.00 | 83 | 1017.5 |
| 20260905232847 | 86 | 151 | 2.0 | 2.0 | 0.00 | 0.00 | 0.00 | 82 | 1017.5 |
| 20260905232343 | 86 | 165 | 1.0 | 2.0 | 0.00 | 0.00 | 0.00 | 80 | 1017.3 |
| 20260905231838 | 87 | 156 | 1.0 | 1.0 | 0.00 | 0.00 | 0.00 | 78 | 1017.5 |
| 20260905231333 | 87 | 172 | 2.0 | 2.0 | 0.00 | 0.00 | 0.00 | 77 | 1017.5 |
| 20260905230830 | 87 | 162 | 1.0 | 2.0 | 0.00 | 0.00 | 0.00 | 77 | 1017.4 |
| 20260905230327 | 87 | 156 | 1.0 | 2.0 | 0.00 | 0.00 | 0.00 | 77 | 1017.5 |
| 20260905225826 | 88 | 172 | 2.0 | 3.0 | 0.00 | 0.00 | 0.00 | 76 | 1017.4 |
| 20260905225321 | 88 | 181 | 3.0 | 3.0 | 0.00 | 0.00 | 0.00 | 76 | 1017.1 |
| 20260905224816 | 88 | 201 | 2.0 | 2.0 | 0.00 | 0.00 | 0.00 | 76 | 1017.0 |
| 20260905224312 | 88 | 190 | 3.0 | 5.0 | 0.00 | 0.00 | 0.00 | 76 | 1017.0 |
| 20260905223807 | 88 | 157 | 2.0 | 3.0 | 0.00 | 0.00 | 0.00 | 75 | 1016.9 |
| 20260905223304 | 89 | 195 | 3.0 | 3.0 | 0.00 | 0.00 | 0.00 | 74 | 1016.8 |
| 20260905222759 | 89 | 188 | 2.0 | 2.0 | 0.00 | 0.00 | 0.00 | 73 | 1016.7 |
| 20260905222258 | 89 | 174 | 3.0 | 3.0 | 0.00 | 0.00 | 0.00 | 72 | 1016.8 |
| 20260905221754 | 90 | 184 | 3.0 | 3.0 | 0.00 | 0.00 | 0.00 | 72 | 1016.7 |
| 20260905221251 | 91 | 181 | 1.0 | 2.0 | 0.00 | 0.00 | 0.00 | 70 | 1016.7 |
| 20260905220746 | 91 | 241 | 2.0 | 3.0 | 0.00 | 0.00 | 0.00 | 69 | 1016.8 |
| 20260905220242 | 91 | 225 | 2.0 | 5.0 | 0.00 | 0.00 | 0.00 | 69 | 1016.8 |
| 20260905215741 | 92 | 161 | 3.0 | 5.0 | 0.00 | 0.00 | 0.00 | 68 | 1016.8 |
| 20260905215237 | 92 | 200 | 3.0 | 3.0 | 0.00 | 0.00 | 0.00 | 67 | 1017.0 |
| 20260905214733 | 91 | 190 | 2.0 | 6.0 | 0.00 | 0.00 | 0.00 | 69 | 1016.8 |
| 20260905214229 | 92 | 202 | 3.0 | 5.0 | 0.00 | 0.00 | 0.00 | 67 | 1017.1 |
| 20260905213723 | 94 | 255 | 4.0 | 6.0 | 0.00 | 0.00 | 0.00 | 65 | 1017.1 |
| 20260905213220 | 93 | 162 | 0.0 | 2.0 | 0.00 | 0.00 | 0.00 | 65 | 1016.9 |
| 20260905212714 | 93 | 239 | 2.0 | 3.0 | 0.00 | 0.00 | 0.00 | 65 | 1016.6 |
| 20260905212213 | 93 | 160 | 3.0 | 3.0 | 0.00 | 0.00 | 0.00 | 67 | 1017.2 |
| 20260905211708 | 93 | 217 | 6.0 | 6.0 | 0.00 | 0.00 | 0.00 | 65 | 1017.2 |
| 20260905211203 | 91 | 171 | 2.0 | 7.0 | 0.00 | 0.00 | 0.00 | 68 | 1017.1 |
| 20260905210655 | 92 | 158 | 3.0 | 6.0 | 0.00 | 0.00 | 0.00 | 69 | 1017.1 |
| 20260905210155 | 92 | 190 | 2.0 | 3.0 | 0.00 | 0.00 | 0.00 | 67 | 1016.9 |
| 20260905205654 | 93 | 170 | 3.0 | 6.0 | 0.00 | 0.00 | 0.00 | 66 | 1017.0 |
| 20260905205153 | 94 | 173 | 3.0 | 3.0 | 0.00 | 0.00 | 0.00 | 67 | 1016.7 |
| 20260905204653 | 92 | 30 | 2.0 | 3.0 | 0.00 | 0.00 | 0.00 | 66 | 1017.0 |
| 20260905204148 | 92 | 137 | 1.0 | 3.0 | 0.00 | 0.00 | 0.00 | 67 | 1016.8 |
| 20260905203643 | 93 | 68 | 4.0 | 5.0 | 0.00 | 0.00 | 0.00 | 66 | 1016.9 |
| 20260905203138 | 92 | 164 | 2.0 | 3.0 | 0.00 | 0.00 | 0.00 | 68 | 1017.0 |
| 20260905202634 | 92 | 160 | 1.0 | 3.0 | 0.00 | 0.00 | 0.00 | 65 | 1016.9 |
| 20260905202129 | 92 | 257 | 3.0 | 7.0 | 0.00 | 0.00 | 0.00 | 66 | 1017.1 |
| 20260905201624 | 93 | 169 | 3.0 | 5.0 | 0.00 | 0.00 | 0.00 | 65 | 1017.3 |
| 20260905201124 | 92 | 237 | 3.0 | 3.0 | 0.00 | 0.00 | 0.00 | 66 | 1017.0 |
| 20260905200620 | 92 | 212 | 5.0 | 7.0 | 0.00 | 0.00 | 0.00 | 66 | 1017.3 |
| 20260905200114 | 93 | 352 | 5.0 | 8.0 | 0.00 | 0.00 | 0.00 | 67 | 1017.1 |
| 20260905195613 | 92 | 170 | 1.0 | 3.0 | 0.00 | 0.00 | 0.00 | 67 | 1017.2 |
| 20260905195108 | 92 | 242 | 3.0 | 3.0 | 0.00 | 0.00 | 0.00 | 68 | 1017.4 |
| 20260905194603 | 92 | 162 | 2.0 | 2.0 | 0.00 | 0.00 | 0.00 | 68 | 1017.4 |
| 20260905194102 | 93 | 290 | 3.0 | 3.0 | 0.00 | 0.00 | 0.00 | 68 | 1017.4 |
| 20260905193556 | 93 | 182 | 7.0 | 8.0 | 0.00 | 0.00 | 0.00 | 68 | 1017.6 |
| 20260905193052 | 93 | 206 | 3.0 | 5.0 | 0.00 | 0.00 | 0.00 | 67 | 1017.7 |
| 20260905192548 | 92 | 50 | 2.0 | 2.0 | 0.00 | 0.00 | 0.00 | 67 | 1017.7 |
| 20260905192044 | 92 | 172 | 3.0 | 3.0 | 0.00 | 0.00 | 0.00 | 66 | 1018.0 |
| 20260905191542 | 92 | 252 | 2.0 | 3.0 | 0.00 | 0.00 | 0.00 | 68 | 1018.0 |
| 20260905191041 | 91 | 193 | 4.0 | 5.0 | 0.00 | 0.00 | 0.00 | 68 | 1017.9 |
| 20260905190540 | 89 | 140 | 1.0 | 5.0 | 0.00 | 0.00 | 0.00 | 75 | 1018.0 |
| 20260905190034 | 91 | 175 | 4.0 | 6.0 | 0.00 | 0.00 | 0.00 | 70 | 1017.6 |
| 20260905185533 | 91 | 202 | 5.0 | 6.0 | 0.00 | 0.00 | 0.00 | 67 | 1018.0 |
| 20260905185032 | 91 | 185 | 4.0 | 8.0 | 0.00 | 0.00 | 0.00 | 69 | 1018.2 |
| 20260905184527 | 92 | 197 | 5.0 | 6.0 | 0.00 | 0.00 | 0.00 | 68 | 1018.2 |
| 20260905184025 | 91 | 255 | 3.0 | 3.0 | 0.00 | 0.00 | 0.00 | 69 | 1018.2 |
| 20260905183520 | 90 | 144 | 0.0 | 2.0 | 0.00 | 0.00 | 0.00 | 70 | 1018.5 |
| 20260905183015 | 91 | 175 | 2.0 | 5.0 | 0.00 | 0.00 | 0.00 | 68 | 1018.3 |
| 20260905182515 | 91 | 273 | 4.0 | 6.0 | 0.00 | 0.00 | 0.00 | 69 | 1018.6 |
| 20260905182009 | 91 | 266 | 5.0 | 6.0 | 0.00 | 0.00 | 0.00 | 69 | 1018.7 |
| 20260905181504 | 91 | 214 | 2.0 | 5.0 | 0.00 | 0.00 | 0.00 | 68 | 1018.6 |
| 20260905181003 | 90 | 164 | 4.0 | 5.0 | 0.00 | 0.00 | 0.00 | 69 | 1018.8 |
| 20260905180458 | 90 | 177 | 3.0 | 5.0 | 0.00 | 0.00 | 0.00 | 72 | 1018.7 |
| 20260905175954 | 89 | 161 | 1.0 | 3.0 | 0.00 | 0.00 | 0.00 | 75 | 1018.8 |
| 20260905175453 | 90 | 181 | 3.0 | 7.0 | 0.00 | 0.00 | 0.00 | 74 | 1019.1 |
| 20260905174949 | 89 | 193 | 5.0 | 6.0 | 0.00 | 0.00 | 0.00 | 74 | 1019.2 |
| 20260905174443 | 88 | 155 | 0.0 | 1.0 | 0.00 | 0.00 | 0.00 | 74 | 1019.1 |
| 20260905173939 | 87 | 190 | 1.0 | 2.0 | 0.00 | 0.00 | 0.00 | 74 | 1019.3 |
| 20260905173436 | 87 | 88 | 1.0 | 2.0 | 0.00 | 0.00 | 0.00 | 75 | 1019.3 |
| 20260905172931 | 87 | 170 | 0.0 | 2.0 | 0.00 | 0.00 | 0.00 | 78 | 1019.5 |
| 20260905172429 | 87 | 88 | 2.0 | 2.0 | 0.00 | 0.00 | 0.00 | 78 | 1019.5 |
| 20260905171925 | 88 | 160 | 2.0 | 3.0 | 0.00 | 0.00 | 0.00 | 77 | 1019.6 |
| 20260905171421 | 88 | 110 | 1.0 | 1.0 | 0.00 | 0.00 | 0.00 | 75 | 1019.7 |
| 20260905170917 | 88 | 151 | 3.0 | 3.0 | 0.00 | 0.00 | 0.00 | 75 | 1019.6 |
| 20260905170413 | 88 | 187 | 5.0 | 7.0 | 0.00 | 0.00 | 0.00 | 75 | 1019.3 |
| 20260905165912 | 88 | 172 | 4.0 | 6.0 | 0.00 | 0.00 | 0.00 | 78 | 1019.6 |
| 20260905165408 | 88 | 221 | 4.0 | 7.0 | 0.00 | 0.00 | 0.00 | 75 | 1019.7 |
| 20260905164903 | 87 | 183 | 6.0 | 8.0 | 0.00 | 0.00 | 0.00 | 76 | 1019.6 |
| 20260905164357 | 88 | 121 | 2.0 | 3.0 | 0.00 | 0.00 | 0.00 | 76 | 1019.9 |
| 20260905163852 | 88 | 168 | 1.0 | 3.0 | 0.00 | 0.00 | 0.00 | 75 | 1019.9 |
| 20260905163349 | 87 | 210 | 1.0 | 2.0 | 0.00 | 0.00 | 0.00 | 78 | 1020.3 |
| 20260905162845 | 85 | 244 | 2.0 | 5.0 | 0.00 | 0.00 | 0.00 | 81 | 1020.4 |
| 20260905162344 | 87 | 274 | 2.0 | 3.0 | 0.00 | 0.00 | 0.00 | 79 | 1020.5 |
| 20260905161839 | 87 | 137 | 1.0 | 3.0 | 0.00 | 0.00 | 0.00 | 77 | 1020.2 |
| 20260905161338 | 86 | 169 | 0.0 | 2.0 | 0.00 | 0.00 | 0.00 | 78 | 1020.4 |
| 20260905160837 | 85 | 301 | 2.0 | 3.0 | 0.00 | 0.00 | 0.00 | 81 | 1020.5 |
| 20260905160331 | 87 | 266 | 2.0 | 5.0 | 0.00 | 0.00 | 0.00 | 80 | 1020.5 |
| 20260905155825 | 86 | 179 | 1.0 | 3.0 | 0.00 | 0.00 | 0.00 | 80 | 1020.7 |
| 20260905155324 | 85 | 16 | 2.0 | 3.0 | 0.00 | 0.00 | 0.00 | 82 | 1020.4 |
| 20260905154819 | 85 | 310 | 3.0 | 6.0 | 0.00 | 0.00 | 0.00 | 82 | 1020.6 |
| 20260905154315 | 86 | 17 | 2.0 | 3.0 | 0.00 | 0.00 | 0.00 | 80 | 1020.4 |
| 20260905153810 | 85 | 119 | 1.0 | 5.0 | 0.00 | 0.00 | 0.00 | 82 | 1020.7 |
| 20260905153306 | 86 | 96 | 2.0 | 2.0 | 0.00 | 0.00 | 0.00 | 81 | 1020.6 |
| 20260905152800 | 83 | 84 | 1.0 | 2.0 | 0.00 | 0.00 | 0.00 | 85 | 1020.7 |
| 20260905152259 | 83 | 77 | 2.0 | 5.0 | 0.00 | 0.00 | 0.00 | 86 | 1020.8 |
| 20260905151800 | 84 | 278 | 4.0 | 6.0 | 0.00 | 0.00 | 0.00 | 85 | 1020.9 |
| 20260905151255 | 83 | 139 | 2.0 | 2.0 | 0.00 | 0.00 | 0.00 | 85 | 1020.8 |
| 20260905150750 | 82 | 171 | 1.0 | 2.0 | 0.00 | 0.00 | 0.00 | 85 | 1020.8 |
| 20260905150250 | 82 | 224 | 3.0 | 3.0 | 0.00 | 0.00 | 0.00 | 87 | 1020.8 |
| 20260905145747 | 82 | 114 | 1.0 | 3.0 | 0.00 | 0.00 | 0.00 | 87 | 1020.9 |
| 20260905145242 | 84 | 13 | 5.0 | 7.0 | 0.00 | 0.00 | 0.00 | 85 | 1020.9 |
| 20260905144741 | 84 | 280 | 2.0 | 2.0 | 0.00 | 0.00 | 0.00 | 84 | 1020.9 |
| 20260905144237 | 82 | 75 | 2.0 | 3.0 | 0.00 | 0.00 | 0.00 | 88 | 1020.8 |
| 20260905143735 | 81 | 114 | 1.0 | 2.0 | 0.00 | 0.00 | 0.00 | 89 | 1021.0 |
| 20260905143235 | 82 | 199 | 3.0 | 3.0 | 0.00 | 0.00 | 0.00 | 89 | 1020.9 |
| 20260905142733 | 81 | 62 | 2.0 | 5.0 | 0.00 | 0.00 | 0.00 | 89 | 1021.1 |
| 20260905142228 | 82 | 259 | 1.0 | 2.0 | 0.00 | 0.00 | 0.00 | 89 | 1021.2 |
| 20260905141724 | 81 | 233 | 2.0 | 2.0 | 0.00 | 0.00 | 0.00 | 89 | 1021.0 |
| 20260905141220 | 81 | 176 | 1.0 | 2.0 | 0.00 | 0.00 | 0.00 | 90 | 1020.9 |
| 20260905140715 | 81 | 278 | 2.0 | 3.0 | 0.00 | 0.00 | 0.00 | 89 | 1020.9 |
| 20260905140214 | 81 | 79 | 1.0 | 2.0 | 0.00 | 0.00 | 0.00 | 90 | 1021.1 |
| 20260905135709 | 80 | 130 | 1.0 | 2.0 | 0.00 | 0.00 | 0.00 | 91 | 1021.0 |
| 20260905135205 | 80 | 147 | 0.0 | 3.0 | 0.00 | 0.00 | 0.00 | 92 | 1021.4 |
| 20260905134704 | 80 | 209 | 2.0 | 2.0 | 0.00 | 0.00 | 0.00 | 94 | 1021.2 |
| 20260905134204 | 79 | 204 | 2.0 | 3.0 | 0.00 | 0.00 | 0.00 | 97 | 1021.1 |
| 20260905133659 | 78 | 123 | 0.0 | 2.0 | 0.00 | 0.00 | 0.00 | 99 | 1021.2 |
| 20260905133154 | 78 | 135 | 0.0 | 3.0 | 0.00 | 0.00 | 0.00 | 99 | 1021.1 |
| 20260905132653 | 77 | 291 | 2.0 | 5.0 | 0.00 | 0.00 | 0.00 | 99 | 1021.1 |
| 20260905132149 | 77 | 104 | 1.0 | 5.0 | 0.00 | 0.00 | 0.00 | 99 | 1021.0 |
| 20260905131643 | 77 | 22 | 2.0 | 3.0 | 0.00 | 0.00 | 0.00 | 99 | 1021.0 |
| 20260905131138 | 77 | 151 | 1.0 | 1.0 | 0.00 | 0.00 | 0.00 | 99 | 1021.0 |
| 20260905130633 | 77 | 131 | 0.0 | 1.0 | 0.00 | 0.00 | 0.00 | 99 | 1020.9 |
| 20260905130132 | 77 | 122 | 0.0 | 2.0 | 0.00 | 0.00 | 0.00 | 99 | 1021.1 |
| 20260905125626 | 77 | 160 | 1.0 | 2.0 | 0.00 | 0.00 | 0.00 | 99 | 1021.2 |
| 20260905125123 | 77 | 159 | 0.0 | 1.0 | 0.00 | 0.00 | 0.00 | 99 | 1021.2 |
| 20260905124619 | 77 | 78 | 0.0 | 1.0 | 0.00 | 0.00 | 0.00 | 99 | 1021.1 |
| 20260905124115 | 77 | 100 | 1.0 | 3.0 | 0.00 | 0.00 | 0.00 | 99 | 1021.0 |
| 20260905123610 | 77 | 149 | 0.0 | 0.0 | 0.00 | 0.00 | 0.00 | 99 | 1021.1 |
| 20260905123107 | 77 | 167 | 0.0 | 0.0 | 0.00 | 0.00 | 0.00 | 99 | 1020.9 |
| 20260905122606 | 77 | 168 | 0.0 | 0.0 | 0.00 | 0.00 | 0.00 | 99 | 1020.8 |
| 20260905122101 | 77 | 163 | 0.0 | 0.0 | 0.00 | 0.00 | 0.00 | 99 | 1020.8 |
| 20260905121555 | 77 | 163 | 0.0 | 0.0 | 0.00 | 0.00 | 0.00 | 99 | 1020.8 |
| 20260905121051 | 77 | 163 | 0.0 | 0.0 | 0.00 | 0.00 | 0.00 | 99 | 1021.1 |
| 20260905120550 | 77 | 161 | 0.0 | 0.0 | 0.00 | 0.00 | 0.00 | 99 | 1021.0 |
| 20260905120045 | 76 | 161 | 0.0 | 0.0 | 0.00 | 0.00 | 0.00 | 99 | 1020.7 |
| 20260905115544 | 76 | 161 | 0.0 | 0.0 | 0.00 | 0.00 | 0.00 | 99 | 1020.6 |
| 20260905115039 | 76 | 161 | 0.0 | 0.0 | 0.00 | 0.00 | 0.00 | 99 | 1020.7 |
| 20260905114538 | 76 | 161 | 0.0 | 0.0 | 0.00 | 0.00 | 0.00 | 99 | 1020.6 |
| 20260905114038 | 76 | 161 | 0.0 | 0.0 | 0.00 | 0.00 | 0.00 | 99 | 1020.8 |
| 20260905113532 | 76 | 161 | 0.0 | 0.0 | 0.00 | 0.00 | 0.00 | 99 | 1020.5 |
| 20260905113028 | 76 | 162 | 0.0 | 0.0 | 0.00 | 0.00 | 0.00 | 99 | 1020.5 |
| 20260905112523 | 76 | 162 | 0.0 | 0.0 | 0.00 | 0.00 | 0.00 | 99 | 1020.4 |
| 20260905112019 | 76 | 162 | 0.0 | 0.0 | 0.00 | 0.00 | 0.00 | 99 | 1020.3 |
| 20260905111513 | 76 | 162 | 0.0 | 0.0 | 0.00 | 0.00 | 0.00 | 99 | 1020.2 |
| 20260905111013 | 76 | 162 | 0.0 | 0.0 | 0.00 | 0.00 | 0.00 | 99 | 1020.5 |
| 20260905110512 | 76 | 162 | 0.0 | 0.0 | 0.00 | 0.00 | 0.00 | 99 | 1020.4 |
| 20260905110007 | 76 | 162 | 0.0 | 0.0 | 0.00 | 0.00 | 0.00 | 99 | 1020.4 |
| 20260905105501 | 76 | 162 | 0.0 | 0.0 | 0.00 | 0.00 | 0.00 | 99 | 1020.1 |
| 20260905105001 | 76 | 162 | 0.0 | 0.0 | 0.00 | 0.00 | 0.00 | 99 | 1020.4 |
| 20260905104456 | 76 | 162 | 0.0 | 0.0 | 0.00 | 0.00 | 0.00 | 99 | 1020.3 |
| 20260905103951 | 76 | 163 | 0.0 | 0.0 | 0.00 | 0.00 | 0.00 | 99 | 1020.3 |
| 20260905103446 | 76 | 163 | 0.0 | 0.0 | 0.00 | 0.00 | 0.00 | 99 | 1020.1 |
| 20260905102942 | 76 | 163 | 0.0 | 0.0 | 0.00 | 0.00 | 0.00 | 99 | 1020.0 |
| 20260905102438 | 76 | 163 | 0.0 | 0.0 | 0.00 | 0.00 | 0.00 | 99 | 1019.9 |
| 20260905101933 | 76 | 165 | 0.0 | 0.0 | 0.00 | 0.00 | 0.00 | 99 | 1020.0 |
| 20260905101432 | 76 | 147 | 0.0 | 0.0 | 0.00 | 0.00 | 0.00 | 99 | 1020.1 |
| 20260905100927 | 76 | 144 | 0.0 | 0.0 | 0.00 | 0.00 | 0.00 | 99 | 1020.2 |
| 20260905100422 | 76 | 144 | 1.0 | 1.0 | 0.00 | 0.00 | 0.00 | 99 | 1019.8 |
| 20260905095921 | 76 | 118 | 0.0 | 1.0 | 0.00 | 0.00 | 0.00 | 99 | 1020.1 |
| 20260905095416 | 76 | 118 | 0.0 | 0.0 | 0.00 | 0.00 | 0.00 | 99 | 1020.0 |
| 20260905094911 | 76 | 117 | 0.0 | 0.0 | 0.00 | 0.00 | 0.00 | 99 | 1019.9 |
| 20260905094406 | 76 | 102 | 1.0 | 1.0 | 0.00 | 0.00 | 0.00 | 99 | 1020.0 |
| 20260905093904 | 76 | 89 | 1.0 | 2.0 | 0.00 | 0.00 | 0.00 | 99 | 1019.9 |
| 20260905093355 | 76 | 115 | 0.0 | 1.0 | 0.00 | 0.00 | 0.00 | 99 | 1019.8 |
| 20260905092850 | 76 | 123 | 0.0 | 0.0 | 0.00 | 0.00 | 0.00 | 99 | 1019.8 |
| 20260905092345 | 76 | 118 | 0.0 | 0.0 | 0.00 | 0.00 | 0.00 | 99 | 1019.8 |
| 20260905091840 | 76 | 117 | 0.0 | 0.0 | 0.00 | 0.00 | 0.00 | 99 | 1019.8 |
| 20260905091339 | 76 | 102 | 0.0 | 0.0 | 0.00 | 0.00 | 0.00 | 99 | 1019.6 |
| 20260905090838 | 76 | 125 | 0.0 | 0.0 | 0.00 | 0.00 | 0.00 | 99 | 1019.6 |
| 20260905090335 | 76 | 114 | 0.0 | 1.0 | 0.00 | 0.00 | 0.00 | 99 | 1019.8 |
| 20260905085833 | 76 | 113 | 0.0 | 0.0 | 0.00 | 0.00 | 0.00 | 99 | 1019.5 |
| 20260905085328 | 76 | 117 | 0.0 | 0.0 | 0.00 | 0.00 | 0.00 | 99 | 1019.6 |
| 20260905084824 | 76 | 149 | 0.0 | 0.0 | 0.00 | 0.00 | 0.00 | 99 | 1019.7 |
| 20260905084323 | 76 | 192 | 1.0 | 2.0 | 0.00 | 0.00 | 0.00 | 99 | 1019.7 |
| 20260905083818 | 76 | 158 | 0.0 | 0.0 | 0.00 | 0.00 | 0.00 | 99 | 1019.6 |
| 20260905083314 | 76 | 157 | 0.0 | 0.0 | 0.00 | 0.00 | 0.00 | 99 | 1019.6 |
| 20260905082809 | 76 | 161 | 0.0 | 2.0 | 0.00 | 0.00 | 0.00 | 99 | 1019.5 |
| 20260905082307 | 76 | 151 | 0.0 | 0.0 | 0.00 | 0.00 | 0.00 | 99 | 1019.6 |
| 20260905081805 | 76 | 164 | 0.0 | 0.0 | 0.00 | 0.00 | 0.00 | 99 | 1019.4 |
| 20260905081301 | 76 | 172 | 1.0 | 1.0 | 0.00 | 0.00 | 0.00 | 99 | 1019.7 |
| 20260905080759 | 76 | 167 | 1.0 | 2.0 | 0.00 | 0.00 | 0.00 | 99 | 1019.6 |
| 20260905080254 | 76 | 151 | 0.0 | 1.0 | 0.00 | 0.00 | 0.00 | 99 | 1019.5 |
| 20260905075752 | 76 | 168 | 0.0 | 1.0 | 0.00 | 0.00 | 0.00 | 99 | 1019.6 |
| 20260905075247 | 76 | 164 | 0.0 | 0.0 | 0.00 | 0.00 | 0.00 | 99 | 1019.5 |
| 20260905074746 | 76 | 165 | 0.0 | 0.0 | 0.00 | 0.00 | 0.00 | 99 | 1019.4 |
| 20260905074242 | 76 | 140 | 0.0 | 0.0 | 0.00 | 0.00 | 0.00 | 99 | 1019.5 |
| 20260905073737 | 76 | 140 | 0.0 | 0.0 | 0.00 | 0.00 | 0.00 | 99 | 1019.5 |
| 20260905073233 | 75 | 140 | 0.0 | 0.0 | 0.00 | 0.00 | 0.00 | 99 | 1019.5 |
| 20260905072732 | 75 | 140 | 0.0 | 0.0 | 0.00 | 0.00 | 0.00 | 99 | 1019.4 |
| 20260905072227 | 75 | 139 | 0.0 | 0.0 | 0.00 | 0.00 | 0.00 | 99 | 1019.6 |
| 20260905071724 | 75 | 139 | 0.0 | 0.0 | 0.00 | 0.00 | 0.00 | 99 | 1019.7 |
| 20260905071220 | 75 | 139 | 0.0 | 0.0 | 0.00 | 0.00 | 0.00 | 99 | 1019.7 |
| 20260905070714 | 75 | 139 | 0.0 | 0.0 | 0.00 | 0.00 | 0.00 | 99 | 1019.6 |
| 20260905070211 | 75 | 139 | 0.0 | 0.0 | 0.00 | 0.00 | 0.00 | 99 | 1019.8 |
| 20260905065709 | 75 | 139 | 0.0 | 0.0 | 0.00 | 0.00 | 0.00 | 99 | 1020.0 |
| 20260905065204 | 75 | 139 | 0.0 | 0.0 | 0.00 | 0.00 | 0.00 | 99 | 1020.0 |
| 20260905064659 | 75 | 139 | 0.0 | 0.0 | 0.00 | 0.00 | 0.00 | 99 | 1020.1 |
| 20260905064154 | 75 | 140 | 0.0 | 0.0 | 0.00 | 0.00 | 0.00 | 99 | 1019.9 |
| 20260905063653 | 75 | 140 | 0.0 | 1.0 | 0.00 | 0.00 | 0.00 | 99 | 1020.2 |
| 20260905063150 | 75 | 140 | 0.0 | 1.0 | 0.00 | 0.00 | 0.00 | 99 | 1019.9 |
| 20260905062645 | 75 | 140 | 1.0 | 1.0 | 0.00 | 0.00 | 0.00 | 99 | 1020.2 |
| 20260905062144 | 75 | 139 | 1.0 | 1.0 | 0.00 | 0.00 | 0.00 | 99 | 1020.4 |
| 20260905061639 | 75 | 139 | 0.0 | 0.0 | 0.00 | 0.00 | 0.00 | 99 | 1020.5 |
| 20260905061138 | 75 | 139 | 0.0 | 0.0 | 0.00 | 0.00 | 0.00 | 99 | 1020.4 |
| 20260905060634 | 75 | 138 | 0.0 | 0.0 | 0.00 | 0.00 | 0.00 | 99 | 1020.6 |
| 20260905060130 | 75 | 138 | 0.0 | 0.0 | 0.00 | 0.00 | 0.00 | 99 | 1020.7 |
| 20260905055628 | 75 | 138 | 0.0 | 1.0 | 0.00 | 0.00 | 0.00 | 99 | 1020.7 |
| 20260905055124 | 75 | 138 | 1.0 | 1.0 | 0.00 | 0.00 | 0.00 | 99 | 1020.5 |